{"data":{"norad_id":56995,"epoch":"2026-05-25T04:13:54.472224Z","epoch_age_seconds":70014,"freshness":"FRESH","line1":"1 56995U 23084BX  26145.17632491  .00002998  00000+0  14173-3 0  9998","line2":"2 56995  97.8225 294.5685 0010955 264.0278  95.9708 15.20193513162846","mean_motion":15.20193513,"eccentricity":0.0010955,"inclination_deg":97.8225,"raan_deg":294.5685,"arg_perigee_deg":264.0278,"mean_anomaly_deg":95.9708,"bstar":0.00014173,"rev_number":16284,"period_min":94.724782581019,"perigee_km":497.71564668627,"apogee_km":512.79716163478,"semimajor_km":6883.3934041605,"source":"CELESTRAK","updated_at":"2026-05-25T13:37:59.791601Z"}}